Regional Weather Roundup
Issued by NWS

Home | Current Version | Previous Version | Text Only | Print | Product List | Glossary On
Versions: 1 2 3 4 5 6 7 8 9 10 11 12 13 14 15 16 17 18 19 20 21 22 23 24 25 26 27 28 29 30 31 32 33 34 35 36 37 38 39 40 41 42 43 44 45 46 47 48 49 50
000
ASUS45 KBOI 081910
RWRID

IDAHO REGIONAL WEATHER ROUNDUP
NATIONAL WEATHER SERVICE BOISE ID
1200 PM MST MON FEB 08 2016

NOTE: "FAIR" INDICATES FEW OR NO CLOUDS BELOW 12000 FEET
WITH NO SIGNIFICANT WEATHER AND/OR OBSTRUCTIONS TO VISIBILITY

IDZ012-014-082000-
SOUTHWEST IDAHO


CITY           SKY/WX    TMP DP  RH WIND       PRES   REMARKS
BOISE          SUNNY     40  33  76 SE14      30.72S WCI  32
CALDWELL       SUNNY     41  34  76 SE9       30.74S
MOUNTAIN HOME  CLOUDY    36  36 100 E16       30.73F WCI  26
$$

IDZ016-017-082000-
SOUTHCENTRAL IDAHO


CITY           SKY/WX    TMP DP  RH WIND       PRES   REMARKS
BURLEY         CLOUDY    29  28  96 NE9       30.69F WCI  20
JEROME         CLOUDY    28  26  92 NE18      30.71S WCI  15
TWIN FALLS     FOG       30  29  96 E7        30.70F VSB 1   WCI  23
$$

IDZ019>023-082000-
SOUTHEAST IDAHO


CITY           SKY/WX    TMP DP  RH WIND       PRES   REMARKS
IDAHO FALLS    CLOUDY    26  24  92 N6        30.72F FOG     WCI  19
POCATELLO      CLOUDY    27  25  92 N6        30.73F WCI  20
REXBURG        CLOUDY    27  24  89 CALM      30.71F
$$

IDZ006-010-011-018-031-032-082000-
CENTRAL IDAHO MOUNTAINS


CITY           SKY/WX    TMP DP  RH WIND       PRES   REMARKS
MCCALL         SUNNY     26  23  88 S5        30.63F WCI  20
STANLEY          N/A     21  12  68 CALM      30.70F
SALMON         CLOUDY    30  19  64 CALM      30.72F
CHALLIS        SUNNY     23  14  68 NE3       30.70F
$$

IDZ002-004-006-007-026-082000-
NORTHERN IDAHO


CITY           SKY/WX    TMP DP  RH WIND       PRES   REMARKS
LEWISTON       MOSUNNY   44  35  70 NW6       30.61F
LOWELL           N/A     43  35  73 N5        30.66F
COEUR D`ALENE  SUNNY     43  32  65 NE10      30.59F
MULLAN PASS    MOSUNNY   38  30  73 S5        30.57S WCI  34
$$



USA.gov is the U.S. government's official web portal to all federal, state and local government web resources and services.